Theta_e
309 309 309 309 310 310 310 310 309 308 307 307 307 307 307 307 307 307 306 306 306 305 304 303 302 300 299 298 298 297 295 294 293 293 293 293 293 293 294 294 294 294 293 293 294 294 293 293 292 291 290 289 289 289 289 288 288 288 288 288 288 287 287 286 286 287 288 288 287 286 284 285 285 285 286 286 286 286 286 287 287 287 287 287 288
311 310 310 310 310 311 311 311 310 309 308 307 307 307 308 308 307 306 306 306 306 305 304 303 302 300 299 298 298 297 296 295 293 293 293 293 293 293 293 293 293 293 293 293 293 293 293 292 291 290 289 289 289 289 288 288 288 288 288 288 288 287 287 287 286 287 288 288 288 287 286 285 285 286 285 285 286 286 286 287 287 287 287 287 287
312 311 311 311 311 311 310 310 309 309 309 308 308 308 308 308 307 307 306 306 305 305 304 303 302 300 299 298 297 297 296 295 294 293 292 293 293 293 293 293 293 293 293 293 293 293 293 292 290 290 289 289 289 289 288 288 288 288 288 288 288 287 287 287 287 287 288 289 288 288 287 285 285 286 286 286 286 286 286 286 286 286 287 287 287
311 311 311 312 312 311 310 310 309 308 308 309 309 309 308 308 307 307 306 305 305 305 304 303 302 300 299 298 298 297 296 295 294 293 292 292 292 293 293 293 293 293 293 293 293 293 292 291 290 289 289 289 289 288 288 288 288 288 288 288 288 288 287 287 287 287 287 288 289 288 287 285 285 285 286 286 286 286 286 286 286 286 286 286 286
312 311 311 311 311 311 311 310 309 308 308 309 309 309 309 308 308 307 307 306 305 305 304 303 302 301 300 299 298 297 296 295 294 293 292 292 292 292 293 293 293 293 293 293 293 292 291 290 289 289 289 289 289 288 288 288 288 288 288 288 288 288 287 287 286 286 286 287 288 287 286 285 285 285 285 286 286 286 286 286 286 286 286 286 286
313 312 311 310 310 310 311 310 310 309 309 309 309 309 309 309 308 308 307 307 306 305 304 304 303 303 302 300 299 298 296 295 294 293 293 292 292 292 292 292 292 292 292 292 292 291 290 290 289 289 289 289 289 288 288 288 288 288 288 288 287 287 287 286 286 286 286 286 286 286 286 285 285 285 285 285 285 285 286 286 286 286 286 286 286
312 312 311 310 309 310 311 311 311 310 310 309 309 307 307 308 308 308 308 307 306 305 305 305 304 304 303 301 300 298 297 296 294 294 293 292 292 291 292 292 292 292 292 291 291 290 290 289 289 289 289 288 288 288 288 287 287 288 288 287 287 286 286 286 285 285 285 285 285 286 285 285 285 285 285 285 285 284 284 285 285 285 285 285 285
309 310 310 310 310 310 311 312 312 311 310 308 307 306 306 306 306 307 307 306 306 305 305 304 304 303 301 300 299 298 297 295 294 294 293 293 292 291 291 291 291 292 291 291 291 290 289 289 289 288 288 288 288 287 287 287 287 287 287 286 286 285 285 285 285 285 285 285 285 285 285 285 285 285 284 284 284 283 282 283 284 284 284 283 282
308 308 308 309 310 310 311 311 311 311 309 307 307 306 305 305 305 305 305 305 305 303 302 301 301 300 299 298 298 297 296 295 294 294 293 293 292 291 290 291 291 291 291 291 291 290 289 289 288 288 288 287 287 287 287 287 287 287 286 286 285 285 285 285 285 285 285 285 285 285 285 285 285 284 284 283 283 282 281 280 281 282 281 281 281
309 308 307 308 308 309 309 309 309 309 308 307 306 305 305 304 304 304 304 304 302 301 300 299 298 298 297 297 297 297 296 295 294 294 293 293 292 291 290 290 291 291 291 291 290 289 289 288 288 288 288 287 287 287 287 287 287 286 285 285 285 285 285 285 285 285 285 284 284 284 284 284 284 283 282 282 281 280 279 278 279 279 278 279 281
309 309 308 308 308 308 307 307 307 307 306 306 305 305 304 304 304 303 303 302 301 300 299 298 297 297 297 297 297 296 296 295 294 293 293 293 292 291 290 290 290 290 290 290 289 289 288 288 288 288 287 288 288 287 287 287 286 286 285 285 286 285 285 285 285 284 284 283 283 283 283 283 283 281 280 280 279 278 278 277 277 278 277 277 279
308 308 308 308 307 307 307 306 306 306 305 304 304 304 303 303 303 303 302 302 300 299 298 298 297 297 296 296 296 295 295 294 294 293 293 292 291 290 290 290 290 290 290 289 289 288 288 288 288 287 288 288 287 287 286 286 285 285 285 285 285 285 285 285 284 283 282 282 282 281 281 281 281 280 279 278 278 277 277 277 277 277 277 277 277
306 307 307 305 305 306 306 305 305 305 304 303 303 302 301 302 302 302 302 301 300 298 298 297 296 296 296 296 295 295 294 293 293 293 292 292 291 290 289 289 289 289 289 289 288 288 288 287 287 287 288 287 287 286 286 285 285 285 285 284 284 283 283 283 283 282 281 281 281 280 280 280 280 279 278 277 277 277 276 277 277 277 277 277 277
303 304 303 302 301 302 303 303 303 303 302 302 302 301 300 300 300 300 300 299 298 298 297 296 296 296 296 295 295 295 294 293 293 292 292 291 290 289 289 288 288 288 288 288 288 287 287 287 287 287 287 287 287 286 285 284 284 284 284 283 283 283 282 282 282 281 281 281 280 280 280 279 279 279 278 276 276 277 276 277 277 277 277 277 277
301 301 300 300 300 300 300 300 300 300 300 300 300 300 299 298 298 298 298 298 298 298 297 296 296 296 295 295 294 294 293 293 292 292 291 290 290 289 288 287 287 287 287 287 287 287 286 287 287 287 287 286 286 285 284 284 284 283 283 283 283 282 282 282 282 282 282 281 280 280 280 279 278 278 277 277 277 277 277 277 277 277 277 277 277
299 300 299 299 299 299 299 299 298 298 298 298 298 298 298 297 297 297 297 296 296 296 296 296 296 295 295 295 294 293 293 292 291 291 290 290 289 289 288 287 287 287 287 287 286 286 286 286 287 287 286 286 285 285 285 285 284 283 283 283 282 283 283 283 282 282 282 281 280 279 279 278 278 278 278 277 277 276 276 277 277 277 277 276 277
299 299 299 299 298 298 298 298 297 297 297 297 297 297 297 297 296 296 296 296 296 296 296 295 296 296 296 294 294 293 292 292 291 290 290 289 289 288 287 287 286 286 286 286 286 286 286 286 287 286 286 285 285 285 285 284 284 283 283 283 283 283 283 282 281 281 281 280 280 279 279 279 279 278 278 278 277 277 276 277 278 277 276 276 277
298 298 298 298 298 297 297 297 297 297 297 296 296 296 296 296 295 295 295 296 296 296 295 295 295 296 295 294 294 293 292 292 291 290 289 288 288 288 287 287 286 286 286 286 286 285 286 286 286 285 285 286 286 286 284 283 283 283 283 283 282 282 282 281 281 281 281 280 280 279 279 279 279 279 279 278 278 277 276 277 277 277 276 275 275
297 298 298 298 297 297 297 296 296 296 296 295 295 295 295 295 295 295 294 295 295 295 294 294 295 294 294 294 293 292 292 291 290 290 289 288 288 287 287 286 286 286 286 286 285 285 285 285 284 285 286 286 286 284 283 283 283 282 282 282 282 282 281 281 281 281 280 280 280 279 279 279 278 278 278 278 278 277 277 277 277 276 275 275 274
296 296 297 297 297 297 296 296 295 295 294 294 294 294 293 293 294 294 294 294 293 293 294 294 294 293 293 292 292 291 291 291 290 289 288 287 287 287 286 286 286 286 286 286 285 285 286 285 285 285 286 285 284 284 283 282 282 282 282 282 281 281 281 280 280 280 280 280 279 278 278 278 278 278 278 277 277 277 277 276 276 276 275 274 273
296 296 296 296 296 296 296 296 295 295 294 293 293 293 293 292 293 293 293 293 292 292 293 293 292 292 291 291 291 290 290 290 289 288 287 286 286 286 286 286 286 286 286 286 286 286 286 285 286 286 286 285 284 283 283 282 281 281 281 281 281 281 280 280 280 280 279 279 278 277 278 278 277 277 277 277 277 276 277 277 276 276 275 273 272
294 295 295 295 295 295 295 295 295 295 294 294 293 292 292 292 292 292 292 292 292 292 292 291 291 291 290 290 289 289 289 289 288 287 286 286 285 285 286 286 286 286 286 285 286 286 286 285 286 286 284 283 283 283 282 281 281 281 281 281 281 280 279 280 280 279 278 278 277 277 277 277 277 277 276 277 277 277 277 277 276 276 275 273 272
292 293 294 294 294 294 294 295 295 295 295 294 293 292 292 291 291 291 291 291 291 291 290 290 289 290 289 289 289 288 288 288 287 286 285 285 285 285 285 286 286 285 285 285 286 286 285 285 285 284 283 282 282 282 281 281 280 280 281 281 280 279 279 279 278 278 277 276 276 276 276 276 276 276 276 276 276 276 276 276 276 275 275 274 273
291 292 293 293 294 294 294 294 294 295 295 295 294 293 292 291 291 291 291 290 290 290 290 289 289 289 289 289 289 288 288 287 286 285 284 284 284 284 284 285 285 285 285 285 285 285 284 285 284 282 282 282 281 281 280 280 280 281 280 280 279 279 279 278 277 277 276 275 275 276 276 276 276 276 276 276 276 276 276 276 275 275 275 275 274
290 291 292 292 293 294 294 294 294 294 295 295 295 293 292 291 291 291 290 290 290 289 289 289 289 289 289 289 288 288 287 286 285 284 283 283 283 283 284 284 284 284 284 284 284 283 283 283 281 280 280 281 281 280 280 280 280 280 280 279 279 278 278 277 276 275 275 275 275 275 276 276 275 275 275 275 276 276 276 275 275 275 275 275 274
289 290 291 291 292 293 294 294 294 294 294 295 295 294 292 291 290 290 290 290 289 289 289 289 289 289 289 289 288 288 287 286 285 284 283 282 282 282 283 283 283 283 283 282 282 282 281 280 280 280 280 280 280 280 280 280 279 279 279 278 278 277 277 276 275 275 274 275 275 275 275 275 275 275 275 275 275 276 275 274 274 274 274 273 273
287 288 289 290 291 292 293 293 294 294 294 294 295 294 293 291 290 290 290 289 289 289 289 289 289 289 289 289 288 287 287 286 285 284 283 282 282 282 282 282 281 281 281 280 280 280 280 279 279 280 280 280 280 279 279 279 279 278 278 278 277 276 276 275 274 274 274 275 275 275 274 274 274 274 275 275 275 275 274 273 273 273 273 271 270
286 287 288 288 289 290 291 292 294 294 294 294 294 294 294 292 291 291 292 292 291 291 291 290 291 291 290 289 288 287 286 286 286 285 285 283 282 281 281 281 280 280 280 280 280 280 280 280 280 280 279 279 279 279 279 278 278 278 277 277 276 276 275 274 274 274 274 274 274 274 274 274 274 274 274 274 275 275 274 272 272 272 272 270 270
286 286 287 287 288 289 290 291 293 293 294 294 294 294 294 294 293 292 292 291 291 291 291 291 292 292 291 290 290 289 288 289 288 286 285 284 283 281 281 280 280 281 281 281 282 281 280 280 279 279 279 279 279 278 278 278 277 277 276 276 275 275 274 274 274 274 274 274 274 274 274 274 274 274 274 274 274 274 273 272 271 271 271 270 270
285 286 286 286 287 287 288 289 291 292 293 293 293 293 293 293 293 292 291 290 289 289 290 289 289 290 290 290 290 290 290 291 290 287 284 283 282 281 281 281 281 282 282 282 282 281 280 279 278 279 279 279 278 278 277 277 277 276 275 275 275 274 274 274 274 274 274 274 273 273 273 273 273 273 273 274 274 274 273 272 271 271 270 270 270
283 285 286 285 285 285 285 286 288 289 290 291 291 292 292 291 292 291 290 289 288 288 288 288 287 287 288 288 288 288 287 287 287 286 284 283 281 280 280 280 281 281 282 282 281 280 279 278 278 278 278 278 277 277 277 277 276 275 275 275 274 274 274 274 274 274 274 274 273 273 273 273 273 273 273 273 273 273 273 272 271 270 270 269 269
280 283 284 284 284 283 282 283 285 286 288 288 288 289 290 290 290 290 289 289 289 288 287 287 286 286 285 285 286 286 285 285 285 284 283 282 281 280 279 280 281 281 281 281 280 279 278 278 278 278 278 277 277 277 277 276 275 275 275 274 274 274 274 274 274 274 274 273 273 273 273 273 273 273 272 272 272 272 272 272 271 270 269 269 269
278 280 282 281 281 280 280 281 282 283 285 286 287 287 288 289 289 289 288 287 287 286 286 285 285 285 284 284 284 284 284 284 284 283 282 281 280 279 279 280 280 280 280 280 279 278 278 278 278 278 277 277 277 277 276 275 275 275 275 274 274 274 274 274 274 273 273 273 273 273 273 272 272 272 272 272 271 271 271 271 270 269 269 269 269
277 278 279 279 278 278 278 279 280 281 282 284 285 286 287 287 288 288 287 286 285 284 284 284 283 282 282 282 282 282 282 283 283 282 281 279 279 279 279 279 279 278 279 280 279 278 278 278 277 277 277 277 277 276 275 275 275 275 274 274 274 274 274 273 273 273 273 273 273 273 272 272 272 271 271 271 271 270 270 270 269 269 269 269 269
273 275 276 276 276 277 278 279 279 280 281 282 283 284 285 286 286 286 285 285 285 284 284 283 282 281 280 280 280 280 281 281 281 281 280 279 279 279 279 278 277 277 278 279 278 278 278 278 277 277 277 276 276 275 275 274 274 274 274 274 274 274 273 273 273 273 273 273 273 272 272 272 271 271 271 271 270 269 269 269 269 269 269 269 269
271 273 274 275 275 276 278 279 279 280 281 281 282 283 283 284 284 284 284 284 283 283 283 282 281 280 279 279 279 279 280 280 280 279 279 279 278 278 278 277 277 277 278 279 278 278 277 277 277 277 276 276 275 275 274 274 274 274 274 274 274 273 273 273 273 272 272 273 273 272 271 271 271 271 270 270 269 269 268 269 269 269 269 269 268
271 272 273 274 275 276 277 278 279 279 280 281 281 282 282 282 283 283 282 282 281 281 281 280 280 279 279 278 278 278 279 279 279 278 278 278 278 278 278 278 278 280 280 279 278 277 277 276 276 276 276 275 275 274 274 274 274 274 274 274 273 273 273 272 272 272 272 272 272 272 271 271 271 270 270 269 268 268 268 268 268 269 269 268 268
269 270 271 272 274 276 277 278 278 279 280 280 280 280 281 281 281 281 281 280 280 280 279 279 279 279 279 278 278 277 278 278 278 278 278 278 278 278 278 278 280 281 280 279 278 277 277 276 276 275 275 274 274 274 274 274 274 274 274 273 273 273 272 272 272 272 272 272 272 271 271 271 270 270 269 268 268 268 268 268 268 268 269 268 268
268 270 271 272 273 275 276 277 278 279 279 279 280 279 279 279 279 279 279 279 279 278 278 278 278 278 278 278 277 277 278 279 279 278 278 279 278 278 278 279 280 280 279 279 278 277 276 276 275 274 274 274 274 274 274 274 274 274 273 273 273 272 272 272 272 272 272 272 271 271 270 270 270 270 268 267 267 267 268 268 268 268 268 268 268
268 269 270 271 273 275 276 276 277 278 278 279 279 279 278 279 278 278 278 278 278 278 278 278 278 278 278 278 277 278 278 279 279 279 279 279 278 278 279 279 279 279 278 278 277 276 275 275 274 274 274 274 274 274 274 274 274 273 273 273 273 272 272 272 272 272 272 271 271 271 270 270 270 269 268 267 267 267 268 268 268 268 268 268 268
268 269 270 270 272 274 275 275 276 277 278 278 278 278 278 278 278 278 278 278 277 277 277 277 278 278 278 278 278 278 278 279 279 279 279 278 278 278 279 279 278 278 278 277 276 275 275 274 274 274 274 274 274 274 274 274 273 273 273 273 272 272 272 272 272 271 271 271 271 270 270 269 269 268 268 267 268 268 268 268 268 268 268 268 268
269 270 270 271 271 272 273 274 275 276 277 278 278 278 278 278 277 277 277 277 277 277 277 277 277 277 277 277 278 278 278 279 279 279 278 278 279 278 278 277 277 277 277 276 275 275 274 274 274 274 274 274 274 274 274 273 273 273 273 272 272 272 272 272 272 271 271 271 271 270 269 269 268 268 267 267 268 268 268 268 268 268 268 268 268
269 270 270 271 271 272 272 273 274 275 277 277 277 277 277 277 277 277 276 276 276 277 277 277 277 277 277 277 278 278 279 279 278 278 278 278 278 278 277 276 276 276 275 275 274 274 274 274 274 274 274 274 274 274 273 273 273 273 272 272 272 272 272 272 272 271 271 271 270 269 269 269 268 268 268 268 268 268 268 268 268 268 268 268 268
269 270 271 271 272 272 272 273 274 275 276 277 277 277 277 276 276 276 276 276 276 276 276 276 277 277 277 277 278 278 278 278 278 278 278 278 277 277 276 276 275 274 274 273 273 273 273 273 273 274 274 274 274 273 273 273 273 272 272 272 272 272 272 272 271 271 271 270 270 269 269 268 268 268 268 268 268 268 268 268 268 268 268 268 267
269 270 271 272 272 272 273 273 274 275 275 276 276 276 275 275 275 275 275 275 276 276 276 276 276 277 277 277 278 278 278 278 278 277 277 277 276 276 275 274 274 273 273 273 273 273 273 273 273 273 273 273 273 273 273 272 272 272 272 272 272 272 272 271 271 271 271 270 269 268 268 268 268 268 268 268 268 268 268 268 268 268 268 268 267
270 270 271 271 272 272 273 273 274 274 275 275 275 274 274 274 274 274 275 275 275 276 276 276 276 276 277 277 277 277 277 277 277 276 276 276 275 275 274 274 273 273 273 273 273 273 273 273 273 273 273 273 273 272 272 272 272 272 272 272 272 272 271 271 271 271 270 269 268 268 268 268 268 268 268 268 268 268 268 268 268 268 268 267 267
269 270 270 271 272 272 273 273 273 273 274 274 273 273 273 273 273 274 274 275 275 275 275 275 275 276 276 276 276 276 276 276 276 275 275 275 274 274 273 273 273 272 272 272 273 273 273 273 273 273 273 273 272 272 272 272 272 272 272 272 271 271 271 271 270 270 270 269 268 268 268 268 268 268 268 268 267 268 268 268 268 268 268 267 267
269 270 270 271 271 272 272 272 272 272 272 272 272 272 273 273 273 273 274 274 274 274 275 275 275 275 276 275 275 275 275 275 275 275 274 273 273 273 273 273 272 272 272 272 272 272 272 272 272 272 272 272 272 272 272 272 272 272 271 271 271 271 271 270 270 270 269 269 268 268 268 268 268 268 268 267 267 267 268 267 268 268 267 267 267
269 269 270 270 270 271 271 271 271 271 271 272 272 272 272 272 272 273 273 273 274 274 274 275 275 275 275 274 274 274 274 274 274 273 273 273 272 272 272 272 272 272 272 272 272 272 272 272 272 272 272 272 272 272 272 272 271 271 271 271 271 271 271 270 270 270 269 269 268 268 268 268 268 268 267 267 267 267 267 267 267 268 267 267 267
269 269 269 270 270 270 270 270 270 271 271 271 271 271 271 272 272 272 272 273 273 273 274 274 275 274 273 273 273 274 274 273 273 273 272 272 272 272 272 272 272 272 272 272 272 272 272 272 272 272 272 272 272 272 271 271 271 271 271 271 271 271 270 270 270 269 269 269 268 268 267 268 268 267 267 267 267 267 267 267 267 268 267 267 267
268 268 269 269 269 269 269 270 270 270 270 270 271 271 271 271 271 272 272 272 273 273 274 274 274 273 273 273 274 273 273 272 272 272 272 272 272 272 272 272 272 272 272 272 272 272 272 272 272 272 272 271 271 271 271 271 271 271 271 271 271 271 270 270 270 270 269 268 268 267 267 267 267 267 267 267 267 267 267 267 268 267 267 267 266
Wind_Speed
25 27 29 31 34 37 40 43 45 46 46 47 47 46 46 46 45 45 46 45 44 43 43 42 41 40 39 40 41 43 46 48 49 48 46 44 42 39 37 35 32 30 28 26 25 25 24 23 23 23 23 22 22 22 21 19 18 17 17 18 18 19 21 24 30 35 34 31 34 38 40 40 41 41 43 44 44 43 42 41 40 40 40 41 41
22 24 27 30 34 37 40 43 45 47 48 49 49 49 48 48 48 48 48 47 46 45 44 43 42 41 39 39 39 40 43 47 50 50 48 47 44 41 39 37 35 32 30 28 26 25 25 24 24 23 23 23 22 22 21 19 18 17 17 18 18 18 21 24 28 34 37 35 34 37 41 42 42 42 43 46 46 44 42 41 40 40 41 42 43
22 24 27 30 34 38 41 45 47 49 50 51 51 51 50 50 50 50 50 49 48 47 46 45 44 42 41 39 38 40 42 45 49 50 50 49 47 44 41 39 37 34 31 29 27 26 26 25 24 24 23 23 22 21 21 19 18 18 18 18 19 19 20 24 27 32 37 38 36 37 42 44 43 42 42 45 46 45 43 41 41 41 42 43 44
27 29 30 31 34 38 42 47 50 52 53 53 53 52 52 52 52 52 52 52 50 49 48 47 45 44 42 40 39 40 41 43 47 50 51 50 48 45 43 40 38 35 32 29 28 27 26 25 25 24 24 23 23 21 21 20 19 19 18 19 19 20 21 23 26 29 35 39 39 38 41 44 44 42 42 43 44 43 42 42 42 43 43 44 45
36 37 38 37 37 39 42 47 52 54 54 54 54 53 54 54 54 54 54 53 52 51 50 49 48 46 45 43 41 40 40 42 45 48 50 50 48 46 43 41 38 35 33 31 30 28 27 26 25 24 25 24 23 22 21 21 20 19 19 19 20 21 22 22 25 28 33 38 40 40 40 42 44 42 41 43 44 44 42 42 42 43 44 45 46
44 44 46 45 43 42 44 47 50 52 53 55 56 56 56 56 56 56 56 55 54 54 53 51 49 48 47 45 42 40 39 40 43 45 48 50 49 47 44 41 38 36 34 32 31 29 27 26 25 25 25 24 22 22 21 21 20 19 19 20 21 21 22 22 25 28 31 36 39 41 41 41 43 43 42 42 43 45 46 46 45 44 45 47 49
46 47 48 49 48 46 48 49 50 50 51 53 56 57 58 58 58 58 57 57 57 56 55 54 52 50 49 47 45 42 40 40 41 43 46 48 50 49 46 43 40 38 36 33 31 29 27 26 26 26 25 24 22 22 21 21 20 19 20 20 21 21 21 22 25 28 31 35 37 39 40 41 42 43 43 41 41 42 44 48 51 49 48 49 51
49 51 51 51 52 52 51 50 50 51 51 53 56 58 58 59 59 59 58 59 59 58 57 56 54 53 51 49 46 43 42 41 42 43 45 48 50 51 48 44 42 40 37 34 32 30 29 27 26 25 25 24 22 22 22 21 20 19 20 21 21 21 21 23 26 28 31 34 35 37 39 40 41 43 44 42 42 43 42 46 52 53 52 53 52
47 50 52 52 54 55 54 52 51 52 53 54 55 56 56 57 57 58 58 59 60 59 57 56 55 53 51 48 45 44 43 42 42 43 45 47 51 52 49 46 44 41 38 35 33 32 30 28 27 26 25 24 23 22 21 21 20 20 20 21 21 21 22 24 26 29 31 33 35 36 38 40 41 42 43 42 42 44 44 44 49 52 52 55 53
44 47 51 51 52 56 57 55 53 54 55 54 54 54 54 55 55 55 56 57 58 58 56 55 54 52 49 47 45 45 44 44 43 43 44 47 50 52 50 47 44 41 38 37 35 32 30 29 27 26 25 24 23 22 21 21 21 20 20 21 21 22 23 25 27 29 31 33 34 34 37 40 40 39 41 41 40 41 42 42 46 50 51 55 58
46 48 50 48 47 50 54 55 55 55 55 54 52 52 52 53 53 54 54 55 55 55 55 54 53 50 48 46 45 45 45 45 43 43 44 47 50 52 51 48 45 42 40 38 35 33 31 29 28 27 26 25 23 22 22 22 21 21 22 22 22 23 24 26 28 29 31 32 32 32 35 38 39 37 38 39 38 39 41 41 44 48 49 51 57
45 46 45 43 42 44 48 52 53 53 54 53 52 52 52 52 53 54 54 54 54 53 53 52 51 48 46 46 45 45 44 44 43 43 44 46 48 50 50 48 45 43 41 38 36 33 32 30 28 28 26 24 23 23 22 22 22 23 23 22 22 24 25 26 28 28 29 30 31 31 32 34 36 35 34 35 37 39 42 43 42 44 47 49 54
37 39 39 40 42 42 43 47 49 50 51 52 52 52 53 54 54 55 54 53 52 51 51 50 49 47 46 45 44 43 43 43 42 42 43 45 47 49 49 48 45 43 40 38 36 34 32 31 29 28 26 25 24 23 22 22 22 22 21 20 21 22 23 24 25 26 26 27 28 29 29 30 33 33 32 31 35 39 42 43 43 44 48 50 53
33 33 35 37 39 40 40 43 46 47 49 51 51 52 53 53 53 53 52 51 51 50 49 48 47 46 45 44 43 43 43 42 41 41 43 45 47 48 48 47 44 41 39 37 36 35 33 31 30 28 26 25 24 23 22 22 22 20 19 20 21 22 23 24 25 25 24 23 26 28 27 27 30 33 32 30 33 37 41 43 44 45 48 50 53
37 35 34 34 34 35 37 39 42 43 46 48 49 49 50 51 51 50 50 49 48 47 46 46 45 45 44 43 42 42 42 41 41 41 43 45 47 48 48 46 43 41 39 37 36 34 33 31 29 27 26 25 24 23 23 22 21 19 19 20 22 23 24 25 25 24 23 23 25 27 27 27 28 31 32 31 32 35 38 41 42 45 48 53 57
39 37 35 33 32 32 32 34 37 39 41 44 45 46 46 48 48 48 47 46 45 44 44 44 43 43 42 42 42 42 42 41 41 42 43 45 48 49 48 46 44 41 39 38 37 35 33 32 29 27 26 25 24 24 23 21 20 20 20 21 23 24 24 24 23 23 23 23 24 25 26 26 27 28 29 30 31 32 36 41 43 45 50 54 57
41 39 36 33 31 30 29 30 32 34 37 40 42 43 44 44 45 45 45 44 44 44 43 43 41 41 41 42 42 42 42 41 42 42 44 47 49 50 49 47 44 41 39 38 37 36 35 32 30 28 26 26 25 24 22 21 21 21 21 22 23 23 24 23 23 22 22 22 23 24 26 26 27 28 28 28 30 31 37 44 45 45 49 52 54
40 39 37 35 31 29 28 27 28 30 33 36 38 40 41 41 42 43 43 43 42 42 42 41 40 40 41 41 41 41 41 40 41 43 45 48 50 49 48 46 44 41 40 39 38 37 35 32 30 29 28 27 25 23 21 21 22 21 21 22 22 23 23 22 22 22 22 23 24 25 26 25 26 27 29 30 31 32 36 42 43 44 47 48 50
39 38 37 36 35 32 28 27 26 27 29 31 34 36 38 39 39 40 40 40 40 40 39 39 40 41 41 40 40 40 39 39 41 43 45 48 50 48 47 47 45 43 41 40 39 37 35 32 31 30 28 26 23 21 21 21 22 21 21 21 22 23 22 21 20 21 23 24 24 25 25 25 27 29 31 32 32 32 34 38 40 41 43 45 46
36 36 37 36 36 35 32 28 26 25 26 27 29 32 34 36 36 37 37 38 38 38 38 38 39 40 40 40 40 40 39 39 41 44 45 47 49 48 47 47 46 43 41 40 39 37 35 34 33 30 27 24 22 21 21 21 21 22 21 22 23 22 20 20 20 21 23 24 24 25 26 27 28 30 31 32 32 33 34 35 36 37 39 42 44
33 34 36 36 37 37 35 31 27 25 25 25 26 29 31 33 34 34 35 36 37 37 37 38 39 39 39 39 40 41 40 40 41 43 44 46 48 47 46 46 45 42 40 40 40 37 36 35 33 30 27 24 22 21 21 20 21 21 21 22 22 19 18 20 20 20 21 23 23 24 26 27 29 30 31 32 32 32 33 33 34 35 35 37 40
35 33 33 35 37 37 36 34 30 26 23 23 24 27 29 30 32 32 33 34 35 36 37 38 38 38 39 39 40 41 40 40 41 43 44 46 48 47 45 43 42 41 40 41 40 37 36 34 31 28 25 23 22 22 21 20 20 21 22 21 19 17 18 20 20 20 20 22 23 24 26 27 29 30 30 31 32 32 33 33 33 33 33 34 36
38 36 33 33 34 35 36 35 33 29 25 22 22 25 27 29 30 30 31 32 33 35 37 38 38 38 38 39 40 41 41 41 41 42 44 45 46 47 45 43 42 42 41 40 38 36 35 33 29 26 24 23 22 21 21 20 21 21 20 18 17 17 18 19 19 19 21 21 22 24 25 27 29 30 30 31 32 32 33 33 32 31 32 33 34
41 39 36 33 32 33 33 33 33 32 29 24 22 23 26 29 30 30 30 32 34 35 36 36 37 38 38 39 40 40 40 41 41 42 44 44 43 44 45 43 41 42 41 40 37 35 34 32 28 25 24 22 22 21 21 21 20 19 17 17 17 17 17 17 18 19 20 21 22 24 25 25 27 29 30 31 32 33 33 32 31 31 32 34 35
43 42 39 37 34 32 32 31 32 32 30 27 24 23 25 28 30 31 31 33 34 35 36 36 36 37 38 39 40 40 40 41 42 43 44 43 40 40 42 42 41 42 42 40 37 35 33 30 26 24 23 23 22 21 20 19 18 17 16 16 16 15 15 17 17 19 20 20 22 23 24 25 26 29 30 31 32 33 33 32 32 32 33 35 38
44 43 41 39 36 34 33 32 31 31 31 30 28 26 26 27 29 30 32 33 34 34 35 35 36 38 39 39 39 40 39 40 41 43 45 44 39 36 38 40 40 42 41 39 36 34 31 27 25 24 23 22 21 19 18 17 17 17 16 14 14 14 15 16 17 18 19 20 22 23 24 25 27 28 30 31 33 33 32 33 35 35 35 38 42
44 44 43 41 38 36 35 34 33 32 32 32 31 30 29 29 30 31 32 33 34 34 35 36 36 38 39 39 40 40 39 40 42 44 47 48 44 38 36 37 37 38 39 37 35 33 29 27 26 24 22 20 18 18 18 17 16 15 14 13 13 13 14 16 17 18 20 21 22 23 24 25 27 29 30 32 34 34 33 34 36 38 39 40 44
45 45 45 44 41 39 38 36 34 33 33 33 34 34 33 33 33 34 33 33 33 33 33 34 34 35 37 39 40 41 42 44 45 46 49 51 50 45 40 37 36 37 37 35 33 32 31 29 26 23 21 20 19 18 18 17 15 14 12 12 12 13 14 16 17 18 19 21 22 23 25 26 28 30 32 33 35 35 34 34 36 39 41 41 44
48 46 45 45 45 43 41 39 37 36 35 35 36 37 37 36 36 36 35 34 33 33 33 33 33 33 35 38 40 41 43 44 46 47 49 51 52 50 46 42 39 37 36 34 34 35 33 28 24 22 21 21 20 18 18 16 15 13 11 11 12 13 14 16 17 18 19 20 22 23 25 27 29 31 33 35 36 35 34 34 36 39 41 42 45
50 48 45 45 46 45 43 42 40 38 37 37 38 39 39 38 38 37 38 37 36 36 36 36 36 35 36 39 39 39 40 40 43 47 49 51 52 52 49 45 42 39 38 36 35 33 29 25 24 23 22 21 20 19 18 16 14 12 11 11 13 13 14 16 17 18 19 20 22 23 25 28 30 32 34 36 38 37 35 35 37 39 41 43 46
49 49 46 44 44 43 44 43 42 40 39 39 39 40 40 40 40 39 39 38 38 38 39 39 39 39 39 40 40 40 40 40 41 45 49 52 52 50 47 46 44 42 42 40 35 29 26 25 26 25 23 22 21 20 18 15 13 11 11 12 13 13 14 16 17 18 19 20 22 23 25 28 31 33 35 37 38 38 38 37 38 40 41 43 47
45 47 45 43 41 40 41 42 42 41 40 40 41 42 42 42 42 42 40 40 40 40 40 40 42 42 42 41 40 41 42 41 41 43 47 51 51 49 48 47 45 43 42 39 33 29 28 27 26 25 24 24 22 20 17 14 12 12 12 12 13 14 15 16 17 18 19 20 22 24 26 28 31 33 35 36 37 39 39 40 41 41 43 45 49
41 44 44 41 39 39 39 41 41 41 41 41 42 43 44 45 45 44 42 41 41 41 42 43 43 43 43 43 43 42 41 40 40 41 44 48 49 48 48 47 45 44 43 37 32 30 30 29 27 26 25 24 22 19 16 14 13 13 12 12 12 14 15 15 16 18 18 20 22 24 26 28 31 34 36 36 36 38 40 41 42 43 44 48 53
37 39 39 38 37 37 38 40 41 41 40 41 42 44 45 46 46 44 43 42 41 42 43 43 43 43 43 42 43 43 41 40 40 40 44 47 48 48 47 45 42 41 40 36 33 33 32 30 29 28 27 24 22 18 15 14 14 13 12 12 12 13 14 15 16 17 18 20 22 24 26 29 32 34 36 36 36 37 40 41 43 44 46 51 55
36 38 38 36 35 36 38 39 39 40 40 40 41 43 45 46 45 45 44 43 42 43 43 41 40 40 39 39 40 41 41 40 39 40 44 48 48 48 46 44 42 41 39 35 34 33 32 31 31 29 27 24 21 18 16 15 14 13 12 12 12 12 13 14 15 17 18 20 22 25 27 30 32 33 34 35 36 38 40 42 43 45 48 52 55
39 41 40 39 37 36 37 38 38 39 39 39 40 41 43 44 45 45 44 43 42 42 41 39 38 36 34 35 37 38 39 40 40 41 44 48 49 49 49 47 46 44 41 38 36 34 33 32 30 28 26 23 20 18 16 15 14 13 12 11 11 11 12 14 15 17 19 20 22 25 27 30 32 32 33 34 36 38 40 42 44 47 49 52 54
38 38 38 37 34 34 36 37 37 38 37 37 39 40 41 43 44 44 43 42 41 40 38 37 35 33 32 34 35 35 36 38 38 40 43 46 47 49 50 50 47 45 42 40 39 37 35 33 31 28 25 23 20 18 16 15 13 12 11 10 11 11 12 14 15 17 19 21 23 25 27 30 32 32 32 34 37 39 41 42 44 48 52 53 54
39 39 38 35 31 31 34 36 37 37 36 36 37 39 40 41 41 41 41 40 39 38 36 35 35 36 37 37 35 33 34 35 37 40 42 44 47 50 51 49 47 44 41 40 39 38 36 34 31 28 25 22 20 17 16 14 12 11 10 10 10 11 12 14 15 17 19 21 23 25 27 30 32 31 31 34 37 40 42 43 44 49 54 56 55
43 43 42 39 35 34 33 33 34 35 35 35 36 36 38 39 39 39 39 37 36 36 35 35 36 37 39 38 36 36 38 40 42 45 46 49 53 53 50 46 44 41 39 38 38 37 35 32 29 27 24 22 19 16 15 13 12 11 10 10 10 11 12 14 15 17 19 22 23 25 28 30 31 32 32 34 37 40 42 44 46 50 54 56 57
40 40 40 37 35 34 34 33 34 33 32 33 34 34 36 37 37 37 36 36 35 35 36 36 37 38 39 39 39 41 44 47 49 51 53 55 55 51 46 43 41 39 38 38 37 35 33 30 28 26 23 20 17 15 14 13 11 10 10 10 10 11 12 13 15 18 20 22 24 26 28 30 31 32 33 35 38 39 40 44 49 51 52 54 57
38 38 37 33 31 32 32 33 33 32 30 31 31 32 33 35 35 35 35 34 34 35 36 37 38 39 39 39 41 45 49 51 52 54 55 53 49 47 45 43 40 39 39 38 36 34 32 29 27 24 21 19 17 15 14 12 11 10 10 10 10 11 12 13 16 18 20 22 25 26 28 30 30 32 34 36 38 38 40 45 50 51 52 54 56
35 35 35 33 32 33 34 34 32 30 29 29 30 30 31 32 33 34 34 34 35 36 36 37 38 39 39 41 45 49 52 53 54 55 53 50 47 47 46 43 39 38 37 36 34 32 30 27 25 22 20 17 16 14 13 12 11 10 10 10 11 12 13 14 16 19 21 23 25 26 28 30 30 31 34 36 37 38 43 48 50 50 52 55 57
30 30 30 30 29 29 31 32 30 29 29 30 29 29 30 31 31 32 33 34 35 36 37 38 39 39 40 43 48 52 54 54 55 54 52 50 49 47 44 40 37 35 34 33 31 29 26 25 23 20 18 16 15 14 12 12 11 10 10 11 11 12 14 15 17 19 21 24 26 27 28 29 30 32 35 36 36 40 46 49 49 50 52 55 57
25 26 26 26 25 24 24 27 28 28 28 29 28 28 29 29 30 32 33 34 36 37 39 40 41 41 42 45 50 53 54 55 55 53 51 49 47 44 40 37 35 34 32 31 29 27 24 22 20 18 16 15 14 12 12 11 10 10 10 11 12 13 15 16 18 20 22 24 26 27 28 30 31 33 35 35 37 44 48 48 47 49 53 56 57
22 22 22 21 20 20 21 23 25 26 26 26 27 27 28 29 30 32 34 36 37 39 40 41 43 45 46 48 50 53 54 53 52 50 48 45 42 39 37 35 34 33 32 30 28 25 23 20 18 16 14 13 12 11 11 10 10 10 11 12 13 14 16 17 19 21 23 24 26 27 28 31 32 33 34 36 40 46 47 45 45 49 53 56 57
17 16 15 15 15 17 19 21 23 24 24 25 26 26 27 28 30 33 35 37 39 40 41 43 46 48 48 49 51 53 52 49 46 44 42 40 38 36 35 34 33 31 30 28 25 23 21 18 16 14 12 11 11 10 9 9 9 10 11 13 14 15 16 18 20 22 23 24 25 26 28 31 32 33 34 38 43 45 43 42 45 48 52 55 57
11 11 11 12 13 15 17 18 20 21 22 23 24 26 27 29 31 33 35 37 39 42 44 46 47 48 48 50 51 51 46 41 39 38 37 37 36 35 34 33 31 30 28 26 23 21 18 16 14 13 11 10 10 9 8 8 9 10 12 14 15 16 17 19 20 22 23 23 23 25 27 30 32 33 36 41 43 43 41 41 45 49 52 54 56
10 9 10 10 11 13 14 16 18 19 21 22 24 26 28 30 32 34 36 38 41 43 46 47 47 47 48 48 47 44 39 36 35 35 35 35 34 34 33 32 30 28 26 24 21 19 17 15 13 11 10 9 8 7 7 8 9 11 13 14 15 17 18 19 21 22 22 22 23 25 27 29 31 34 39 41 41 40 39 41 45 49 52 54 55
8 7 7 8 9 11 13 14 17 19 21 23 25 27 29 30 32 34 36 39 41 44 46 47 47 46 45 43 40 37 34 33 34 34 34 34 34 33 31 30 28 26 24 22 20 18 16 14 12 10 9 8 7 7 7 9 10 12 13 15 16 17 18 19 21 22 22 23 24 25 26 28 31 35 38 39 38 37 38 41 45 49 52 54 55
6 4 5 6 8 10 12 14 16 18 21 23 25 28 29 31 32 34 37 39 42 44 45 45 45 43 39 38 36 34 32 33 34 34 35 34 33 31 30 28 26 24 22 20 18 16 14 12 10 9 8 7 7 7 8 10 11 12 14 15 16 17 18 19 20 21 22 22 23 24 25 29 33 36 37 37 36 36 38 41 45 49 51 53 54
4 2 2 4 7 9 11 14 16 18 21 23 25 27 29 31 32 34 36 38 40 41 42 42 41 37 35 35 34 33 32 33 34 34 34 33 31 29 28 26 24 22 20 18 16 14 12 10 9 8 8 7 7 8 9 11 12 13 15 16 16 17 18 19 20 21 21 22 22 23 25 30 34 35 35 35 34 35 38 41 45 48 50 52 53
Wind_Direction
258 256 255 253 253 251 250 249 248 247 247 245 244 243 242 241 240 239 239 239 240 241 242 243 242 240 237 236 236 236 235 234 232 230 229 228 228 228 230 232 233 236 238 242 247 252 256 260 263 266 268 270 272 272 270 268 270 278 285 291 300 309 312 311 309 311 315 318 318 314 313 316 320 322 322 322 321 321 321 322 321 318 315 314 313
268 267 264 262 260 256 253 252 251 249 248 246 245 243 242 241 240 241 241 240 240 241 242 244 244 243 240 238 237 237 237 235 233 231 230 229 228 228 229 231 232 234 236 241 246 251 255 257 260 263 265 268 270 269 267 266 269 276 283 290 299 306 308 308 308 310 312 316 318 316 314 314 318 321 322 321 320 320 321 321 320 317 315 314 314
268 267 266 268 268 264 259 255 253 251 249 248 246 244 243 241 241 241 242 241 241 242 243 244 245 244 242 240 238 237 237 236 234 232 231 230 229 229 230 231 232 234 237 241 245 248 252 255 258 261 263 265 267 266 263 264 269 275 282 290 297 302 304 305 306 308 311 313 315 316 314 313 316 319 320 319 318 319 321 320 320 318 317 317 317
269 264 263 267 269 267 264 260 255 253 251 250 248 247 246 244 243 242 243 244 243 242 243 244 245 245 244 242 240 238 237 237 235 233 231 231 230 230 231 231 233 235 237 240 243 246 249 252 256 259 261 264 265 263 261 262 267 274 282 290 296 299 301 302 304 306 308 310 312 314 313 312 314 317 318 316 315 317 320 320 319 318 318 319 319
279 272 265 262 262 264 266 263 259 256 255 253 251 250 248 247 246 245 245 245 245 244 244 244 245 245 245 244 242 240 238 238 237 234 232 231 231 230 231 232 233 235 237 239 241 243 246 250 254 258 261 263 263 261 259 261 266 274 283 289 293 296 297 300 303 304 306 307 309 310 310 310 312 315 317 316 316 318 319 319 318 317 318 319 320
283 278 270 262 259 263 266 265 262 261 260 258 254 251 249 248 247 246 246 246 246 245 245 245 245 246 247 246 245 243 240 238 238 237 234 232 231 230 230 231 232 234 236 238 239 242 245 248 252 257 260 262 261 259 259 261 267 274 281 286 289 292 295 300 302 302 302 304 305 307 309 310 311 314 316 319 320 322 322 319 317 318 320 320 319
283 281 276 267 262 266 269 269 268 266 264 261 257 252 249 248 247 246 246 246 246 246 246 246 246 246 247 247 246 245 241 238 237 237 235 233 231 229 229 229 230 232 234 236 238 241 244 247 252 256 259 260 258 257 258 261 267 273 279 283 286 289 294 298 298 299 300 301 303 306 307 309 312 313 316 321 324 325 325 322 319 320 324 323 320
290 287 282 271 264 267 271 272 272 269 264 260 256 253 250 248 247 246 246 246 246 246 245 245 244 244 244 244 244 243 241 237 235 235 235 233 231 229 228 228 229 231 233 235 237 240 242 245 249 253 255 256 255 255 257 261 266 272 276 280 283 287 291 294 295 296 298 299 301 304 306 309 311 313 318 324 326 326 327 325 322 322 324 323 320
295 292 287 278 272 272 273 273 273 269 262 257 254 253 251 250 248 247 246 246 246 245 244 243 243 242 242 242 242 242 240 238 235 233 234 233 230 228 227 228 230 231 232 234 236 237 240 243 246 249 252 252 252 254 257 261 266 270 275 278 280 284 287 290 293 296 298 300 302 306 308 309 312 316 321 325 326 327 328 326 323 322 322 319 317
289 288 287 284 281 279 275 273 271 266 261 257 255 253 251 249 248 247 247 247 246 245 243 242 242 242 241 241 241 241 240 238 235 233 233 234 232 228 227 228 229 230 232 233 234 236 237 240 243 246 248 248 250 253 256 260 265 269 271 273 276 280 286 291 295 298 301 302 304 309 309 310 315 319 321 323 325 325 325 323 319 319 319 316 316
285 284 285 285 285 282 277 272 269 266 261 257 255 252 250 248 247 246 246 245 244 244 242 241 241 241 241 241 241 241 240 238 235 233 233 234 232 229 228 228 228 230 231 232 233 234 235 237 240 242 244 246 249 252 254 259 264 266 266 269 276 284 290 295 298 300 301 303 306 309 310 311 315 318 318 321 323 322 320 318 315 314 315 313 312
286 285 286 288 287 284 280 274 269 266 261 256 253 251 248 246 245 244 244 244 243 242 241 241 240 239 240 239 239 240 239 238 235 233 233 233 232 229 228 228 229 229 230 231 231 232 233 235 236 238 241 244 246 249 253 258 261 263 268 275 283 288 291 294 297 297 297 300 303 304 307 310 312 314 315 317 319 318 315 313 311 310 309 306 305
295 290 292 292 288 284 281 275 269 266 261 255 252 249 245 244 243 242 242 242 241 240 240 239 238 238 238 238 238 239 238 236 235 234 234 234 232 229 227 228 229 229 230 231 231 231 231 232 233 235 238 240 243 247 252 255 259 264 271 278 281 282 285 287 289 290 291 295 297 298 303 306 307 312 315 313 312 312 309 307 308 308 307 304 301
326 314 307 299 291 286 283 276 271 266 261 256 252 248 245 243 242 241 241 239 239 239 238 237 237 237 237 237 237 237 237 235 233 232 233 233 231 228 226 226 227 228 230 231 231 231 230 230 231 234 236 239 243 247 249 252 258 264 269 272 274 277 280 283 284 285 288 291 292 294 300 304 306 310 314 310 307 307 306 305 307 306 303 300 298
345 337 326 314 303 295 288 281 273 267 261 257 252 249 246 244 243 242 240 239 239 239 238 238 237 236 236 236 236 235 234 233 231 230 230 231 230 227 225 225 225 226 228 229 229 229 228 228 230 231 234 238 243 245 248 253 259 265 268 271 274 277 280 283 285 287 291 292 292 296 302 306 306 306 307 305 302 301 301 299 298 297 295 294 297
348 345 338 329 319 309 298 287 278 271 265 259 254 250 248 246 244 242 240 239 238 238 238 237 236 236 236 235 234 233 232 230 229 228 228 229 229 226 223 223 224 225 227 227 226 226 225 226 228 230 232 236 240 245 252 259 263 266 269 271 274 278 282 286 288 291 294 293 293 296 298 298 296 294 296 297 295 294 295 293 294 297 297 298 299
349 349 345 337 328 319 310 298 287 278 270 263 258 254 250 247 245 242 240 238 237 237 236 235 235 236 236 234 232 231 230 228 227 227 227 228 228 225 222 221 223 225 225 226 225 225 224 225 227 229 231 235 241 249 257 262 264 266 270 273 277 282 285 287 289 290 289 289 289 288 288 290 293 295 298 299 298 297 296 297 301 303 301 299 299
346 349 350 346 337 328 319 309 298 286 276 269 263 258 253 248 245 242 240 239 238 237 236 234 234 235 234 233 233 232 231 229 226 226 226 227 228 226 222 221 222 223 223 224 224 224 224 226 227 228 232 237 244 251 255 259 263 266 269 273 276 279 281 283 286 287 285 286 288 287 291 298 304 306 306 304 303 302 299 299 302 301 298 297 299
338 343 347 348 345 340 332 321 308 295 284 275 268 261 255 250 246 243 241 240 238 237 235 235 234 234 233 233 233 233 232 229 226 225 225 227 229 227 223 221 221 221 222 223 223 223 223 225 226 229 234 240 244 249 251 254 259 263 266 269 271 274 279 282 285 285 285 288 292 296 303 310 312 310 307 305 304 303 299 298 298 298 298 298 299
330 333 337 341 344 345 342 333 319 306 294 283 272 264 257 252 248 244 241 239 237 235 235 235 234 233 232 232 232 231 230 228 226 225 224 225 228 225 221 221 222 221 222 223 222 222 223 224 227 231 236 240 242 246 248 250 255 261 264 267 270 273 278 280 280 282 287 293 299 304 309 312 311 309 307 306 306 303 300 299 299 300 299 299 299
323 323 325 330 334 338 341 338 329 317 304 290 277 268 261 255 251 247 243 239 236 234 234 233 233 232 232 232 232 230 229 228 226 224 222 223 226 225 222 223 225 224 224 224 222 222 223 225 228 233 236 239 242 245 247 248 253 259 262 265 270 275 276 277 279 285 291 296 300 304 308 311 310 309 307 306 305 304 303 302 302 303 301 298 297
317 317 317 318 320 324 329 331 330 325 314 300 286 274 265 258 253 248 243 240 238 236 234 232 230 231 231 231 231 230 229 227 226 224 221 220 224 227 224 224 227 227 226 224 223 222 224 226 230 233 234 236 240 243 246 248 249 253 259 264 269 271 272 276 284 290 292 296 300 305 309 311 309 308 307 307 307 308 307 306 304 303 300 296 292
310 310 310 311 312 314 316 319 322 322 319 310 294 280 269 261 254 249 244 242 239 236 235 232 230 230 230 230 231 230 229 227 224 223 221 219 222 227 227 224 225 227 227 226 225 224 224 226 228 229 229 233 237 240 241 243 244 249 256 260 261 265 271 279 286 289 291 296 301 305 309 310 308 309 310 311 312 311 309 307 306 304 302 299 297
305 304 304 304 305 306 307 308 310 313 314 311 300 285 273 264 257 251 247 242 238 236 234 232 231 231 231 231 231 230 229 227 222 219 219 217 218 223 226 224 223 225 226 226 225 224 225 227 226 224 225 228 232 235 236 239 243 247 250 252 256 264 273 279 284 287 292 297 301 304 308 310 310 312 314 314 314 313 311 310 309 307 306 305 305
302 300 299 299 299 298 299 299 299 302 303 303 298 286 274 265 258 252 246 242 238 236 234 233 233 233 233 233 232 230 227 225 221 216 214 214 213 219 226 226 224 225 225 224 223 223 223 225 221 218 220 223 228 232 235 237 240 240 241 247 255 264 272 278 283 288 292 297 300 303 308 311 313 315 316 315 314 314 314 315 313 314 315 314 313
299 297 295 295 294 291 291 290 291 292 292 292 292 284 273 265 258 253 247 242 239 237 236 235 233 233 234 234 233 231 227 225 223 218 214 212 210 214 224 226 224 224 224 222 222 222 221 220 217 214 218 224 228 231 230 230 232 234 238 245 254 263 271 278 283 287 291 296 301 305 311 315 316 317 316 315 315 316 319 320 319 320 322 320 317
295 293 291 291 289 286 284 283 284 284 283 283 283 279 272 264 256 252 248 243 240 238 236 236 234 233 233 233 232 231 227 224 223 219 215 213 210 209 217 221 219 220 220 217 217 218 217 215 215 215 219 223 223 221 221 223 227 232 238 245 253 264 272 277 283 287 293 299 304 310 315 317 317 319 317 316 316 318 322 323 322 323 325 322 315
292 289 287 286 284 281 280 278 277 277 277 276 276 275 271 266 259 256 254 250 246 243 241 240 239 238 236 234 231 228 225 224 224 221 217 215 211 208 210 212 212 215 217 214 213 216 216 215 215 213 214 216 216 216 217 220 224 229 236 246 256 266 272 277 283 290 297 303 308 312 317 318 319 320 319 318 318 320 323 325 323 323 325 321 313
292 288 284 282 280 278 275 274 273 272 272 272 271 270 270 268 264 261 258 255 252 251 250 250 248 245 241 239 235 231 228 228 226 223 219 217 213 209 208 209 212 217 220 217 216 217 216 213 210 209 210 212 212 212 213 215 220 227 236 247 257 265 271 277 285 292 298 304 309 313 318 319 320 321 320 319 319 321 324 325 324 323 322 316 311
292 289 285 281 279 277 273 270 268 268 268 267 266 266 265 263 262 260 258 255 251 250 250 251 250 247 245 244 243 241 240 238 232 224 219 217 215 212 212 214 217 219 220 219 218 217 213 208 206 208 211 211 208 208 210 213 217 224 235 247 256 265 273 281 288 295 300 306 311 316 320 321 321 322 321 320 320 321 324 325 324 322 319 314 311
290 288 286 283 280 278 275 270 266 265 266 265 264 263 261 260 258 256 255 254 251 249 248 248 248 246 245 244 243 242 241 239 233 226 220 216 214 211 211 214 216 217 218 218 215 211 208 206 207 208 208 206 205 206 208 210 214 222 234 248 259 268 277 285 291 297 302 308 314 319 322 322 323 323 322 321 321 321 324 325 324 321 317 313 312
288 286 284 282 279 277 275 272 267 264 263 263 261 259 258 257 255 253 251 250 250 249 247 246 245 245 244 243 241 239 237 235 231 227 221 216 212 209 209 212 214 215 217 217 213 208 206 206 207 208 205 204 205 206 206 207 214 224 235 248 261 272 280 287 292 298 305 312 317 321 323 324 324 323 321 321 321 321 322 324 323 320 317 315 314
285 283 282 281 279 276 274 272 269 264 261 262 261 258 255 254 253 252 250 246 246 246 244 243 243 243 243 242 240 238 237 235 232 227 220 214 210 206 207 210 211 212 215 213 209 208 207 205 205 206 205 204 204 204 203 205 214 226 238 248 259 271 280 287 293 300 307 314 319 322 324 325 324 323 321 320 320 320 321 322 322 320 318 316 317
283 281 279 279 278 277 273 271 269 266 263 261 261 259 257 255 253 252 248 244 241 241 241 240 239 238 239 239 238 236 234 232 230 226 218 210 206 203 204 205 204 208 213 212 208 206 205 203 203 203 202 202 202 200 201 208 217 229 240 250 260 271 279 287 295 302 309 316 319 322 325 326 325 322 320 320 321 320 320 321 320 319 318 318 318
284 280 278 277 277 276 274 272 270 268 265 263 260 259 258 256 252 250 247 245 242 241 240 238 235 232 232 233 234 233 231 228 226 222 215 207 201 200 199 195 192 198 206 208 206 205 204 203 202 201 199 199 198 197 202 212 221 230 240 253 265 275 284 291 299 306 313 318 321 324 326 325 323 320 319 320 321 321 320 320 320 319 318 318 319
283 279 275 273 272 271 272 272 271 269 267 265 262 260 258 255 252 248 246 244 243 241 240 238 233 228 226 226 228 228 228 225 221 215 210 204 199 197 195 190 189 196 203 202 201 201 201 201 201 199 197 196 194 197 206 215 223 233 243 256 269 279 289 297 303 310 315 319 323 325 325 322 320 320 321 321 321 321 319 319 319 319 319 319 319
284 280 277 276 276 274 271 270 270 270 270 266 262 258 254 251 249 246 243 241 239 237 235 233 227 219 213 215 218 219 220 219 214 207 204 199 196 197 198 196 197 203 204 200 197 196 195 195 196 195 193 192 193 200 210 217 225 236 247 260 271 282 292 299 306 312 317 321 323 323 322 320 319 321 324 324 322 321 320 319 319 319 319 320 320
284 280 277 275 275 274 274 273 271 270 268 265 259 254 250 247 245 241 239 237 234 231 228 224 220 212 206 205 206 205 204 203 198 195 194 193 192 195 199 201 204 206 203 198 196 195 192 192 191 190 189 192 195 203 211 219 227 237 247 259 273 284 293 300 308 314 316 319 321 321 319 319 319 323 326 325 321 320 320 320 319 319 320 321 322
282 279 276 273 266 262 264 269 271 269 265 261 256 251 246 242 239 236 234 231 228 226 222 217 215 210 205 202 198 193 190 189 187 187 189 190 191 194 197 201 203 203 199 196 195 193 191 190 188 186 187 192 198 205 213 220 228 238 248 259 272 283 292 300 309 314 317 318 319 320 319 318 319 324 328 325 320 320 321 320 319 319 320 322 323
282 280 279 276 270 262 259 261 265 265 263 259 254 249 244 239 236 233 230 226 222 220 217 213 211 208 203 199 194 189 187 186 185 186 188 188 189 193 197 200 199 196 194 194 192 189 187 186 185 185 188 193 199 206 214 221 229 239 250 262 273 283 295 304 311 315 318 318 318 318 318 318 321 326 328 323 320 320 320 318 319 321 322 322 323
282 279 276 271 265 260 257 257 258 259 259 258 254 248 243 239 234 230 227 222 219 216 213 210 208 205 202 198 192 188 187 185 185 187 187 187 190 195 199 198 195 192 191 190 187 185 183 182 183 185 189 194 201 207 214 223 231 240 253 265 277 290 301 309 313 316 317 317 317 317 317 319 324 328 326 322 320 320 319 319 320 323 323 324 324
282 279 275 271 264 257 252 253 255 254 253 253 251 247 243 238 232 228 223 219 215 212 207 205 203 200 197 194 190 188 187 187 187 187 187 190 196 199 198 195 192 190 188 186 184 182 181 179 182 187 191 196 204 210 216 226 234 244 258 271 283 296 305 310 313 315 315 315 317 318 317 321 326 327 325 323 323 322 321 321 323 324 325 325 325
280 277 274 272 267 259 253 250 250 249 247 246 245 242 239 234 229 225 219 214 210 206 201 198 195 192 190 190 190 189 188 187 187 188 190 195 199 198 195 191 188 185 182 181 181 180 179 179 184 188 192 198 207 213 220 230 240 250 264 277 289 298 305 310 313 314 315 316 317 317 318 321 326 328 327 327 325 322 321 323 325 326 325 325 326
278 274 271 266 262 258 254 249 246 245 245 244 242 239 235 230 224 218 212 208 205 201 196 193 189 185 185 188 189 189 189 189 189 192 195 197 197 194 190 186 181 178 178 179 177 177 179 183 185 189 194 201 209 216 224 235 245 257 271 283 292 299 305 309 312 314 315 316 316 317 318 322 327 329 329 327 324 321 322 325 326 326 326 326 327
272 268 265 260 255 253 251 248 245 244 242 240 237 233 228 223 217 211 206 202 199 196 193 189 186 185 186 187 188 189 190 191 192 194 195 194 192 188 184 180 176 175 176 176 176 178 182 184 187 191 197 203 211 220 229 241 255 268 278 287 295 300 305 309 311 313 316 316 316 316 319 323 328 331 329 324 321 320 323 326 327 326 327 328 329
272 265 261 257 252 250 247 244 241 238 235 233 230 224 219 214 209 205 201 199 196 192 188 185 184 186 187 187 187 189 192 193 194 195 194 190 187 182 178 175 175 175 175 176 177 181 184 185 188 194 199 207 216 225 237 251 266 277 286 293 298 301 305 309 310 312 315 316 316 316 318 323 329 330 325 320 319 321 325 328 328 327 328 329 330
286 275 267 259 251 245 240 236 232 230 227 224 220 215 209 204 201 199 197 195 192 188 184 183 184 187 188 188 188 190 192 193 194 192 188 183 179 176 174 174 174 175 176 177 180 182 183 184 188 195 202 211 221 233 249 264 277 288 293 297 300 303 305 308 309 311 314 316 314 313 318 326 330 326 319 317 319 324 328 329 328 328 330 332 332
298 282 268 257 246 239 233 228 223 219 215 210 208 205 201 198 196 194 192 189 187 185 183 184 185 188 189 188 188 188 188 189 188 185 180 176 174 173 173 174 174 175 178 180 180 181 183 185 190 197 206 216 228 245 262 276 288 294 296 299 302 304 305 306 308 310 313 313 311 314 323 329 326 319 315 317 322 326 329 329 329 329 332 333 334
306 286 267 251 238 229 223 216 211 208 204 201 199 196 194 193 191 189 186 185 184 184 185 185 187 189 188 186 184 184 184 183 181 177 174 173 173 173 173 174 175 177 179 180 181 182 184 187 194 202 211 224 240 257 272 285 293 296 299 302 303 302 303 306 307 309 311 311 312 319 327 326 318 314 315 319 324 328 330 330 329 330 333 335 335
315 289 262 240 223 215 209 205 201 199 196 195 193 191 189 188 187 185 184 184 183 183 184 186 188 188 185 180 178 179 180 178 176 173 172 172 172 173 174 175 177 179 180 181 182 185 187 192 201 212 223 237 254 267 280 289 295 299 302 303 301 301 303 303 303 306 310 312 315 322 325 319 314 315 318 321 325 329 331 330 329 332 334 336 336
342 312 244 215 204 201 198 195 193 192 191 190 189 188 186 186 185 184 185 186 185 184 185 186 186 183 179 177 177 177 175 174 173 172 172 172 172 173 175 177 178 180 181 182 184 188 193 200 211 223 236 250 264 276 285 293 298 302 304 304 303 303 303 302 303 308 312 312 315 320 319 315 314 317 319 322 327 332 332 330 330 333 335 336 337